TimeEDT,TemperatureF,Dew PointF,Humidity,Sea Level PressureIn,VisibilityMPH,Wind Direction,Wind SpeedMPH,Gust SpeedMPH,PrecipitationIn,Events,Conditions,WindDirDegrees,DateUTC
12:15 AM,66.2,64.4,94,30.18,9.0,Calm,Calm,-,N/A,,Clear,0,2012-10-05 04:15:00
12:35 AM,66.2,64.4,94,30.18,8.0,West,3.5,-,N/A,,Clear,260,2012-10-05 04:35:00
12:55 AM,66.2,64.4,94,30.17,8.0,Calm,Calm,-,N/A,,Clear,0,2012-10-05 04:55:00
1:15 AM,66.2,64.4,94,30.16,7.0,Calm,Calm,-,N/A,,Clear,0,2012-10-05 05:15:00
1:35 AM,64.4,62.6,94,30.16,5.0,Calm,Calm,-,N/A,,Clear,0,2012-10-05 05:35:00
1:55 AM,64.4,62.6,94,30.16,3.0,Calm,Calm,-,N/A,,Clear,0,2012-10-05 05:55:00
2:15 AM,64.4,64.4,100,30.15,7.0,Calm,Calm,-,N/A,,Clear,0,2012-10-05 06:15:00
2:35 AM,66.2,64.4,94,30.15,10.0,West,4.6,-,N/A,,Clear,280,2012-10-05 06:35:00
2:55 AM,66.2,64.4,94,30.15,10.0,Calm,Calm,-,N/A,,Clear,0,2012-10-05 06:55:00
3:15 AM,66.2,64.4,94,30.15,7.0,Calm,Calm,-,N/A,,Clear,0,2012-10-05 07:15:00
3:35 AM,64.4,62.6,94,30.14,7.0,Calm,Calm,-,N/A,,Clear,0,2012-10-05 07:35:00
3:55 AM,64.4,62.6,94,30.14,7.0,Calm,Calm,-,N/A,,Clear,0,2012-10-05 07:55:00
4:15 AM,64.4,62.6,94,30.13,7.0,Calm,Calm,-,N/A,,Clear,0,2012-10-05 08:15:00
4:35 AM,64.4,62.6,94,30.14,8.0,Calm,Calm,-,N/A,,Clear,0,2012-10-05 08:35:00
4:55 AM,64.4,62.6,94,30.14,8.0,Calm,Calm,-,N/A,,Clear,0,2012-10-05 08:55:00
5:15 AM,64.4,62.6,94,30.14,7.0,Calm,Calm,-,N/A,,Clear,0,2012-10-05 09:15:00
5:35 AM,64.4,62.6,94,30.15,7.0,Calm,Calm,-,N/A,,Clear,0,2012-10-05 09:35:00
5:55 AM,66.2,62.6,88,30.15,7.0,Calm,Calm,-,N/A,,Clear,0,2012-10-05 09:55:00
6:15 AM,64.4,62.6,94,30.15,7.0,Calm,Calm,-,N/A,,Clear,0,2012-10-05 10:15:00
6:35 AM,64.4,62.6,94,30.15,5.0,Calm,Calm,-,N/A,,Clear,0,2012-10-05 10:35:00
6:55 AM,64.4,62.6,94,30.15,5.0,Calm,Calm,-,N/A,,Clear,0,2012-10-05 10:55:00
7:15 AM,64.4,62.6,94,30.15,4.0,Calm,Calm,-,N/A,,Clear,0,2012-10-05 11:15:00
7:35 AM,64.4,62.6,94,30.15,3.0,West,3.5,-,N/A,,Clear,280,2012-10-05 11:35:00
7:55 AM,64.4,62.6,94,30.15,4.0,Calm,Calm,-,N/A,,Clear,0,2012-10-05 11:55:00
8:15 AM,64.4,62.6,94,30.15,5.0,Calm,Calm,-,N/A,,Clear,0,2012-10-05 12:15:00
8:35 AM,66.2,62.6,88,30.15,7.0,Calm,Calm,-,N/A,,Clear,0,2012-10-05 12:35:00
8:55 AM,66.2,62.6,88,30.15,10.0,Calm,Calm,-,N/A,,Clear,0,2012-10-05 12:55:00
9:15 AM,68.0,62.6,83,30.15,10.0,Calm,Calm,-,N/A,,Clear,0,2012-10-05 13:15:00
9:35 AM,69.8,62.6,78,30.15,10.0,NW,4.6,-,N/A,,Clear,310,2012-10-05 13:35:00
9:55 AM,69.8,62.6,78,30.16,10.0,NNW,3.5,-,N/A,,Clear,340,2012-10-05 13:55:00
10:15 AM,71.6,62.6,73,30.15,10.0,Calm,Calm,-,N/A,,Clear,0,2012-10-05 14:15:00
10:35 AM,73.4,62.6,69,30.15,10.0,NW,3.5,-,N/A,,Clear,310,2012-10-05 14:35:00
10:55 AM,73.4,64.4,73,30.15,10.0,NNW,5.8,-,N/A,,Clear,340,2012-10-05 14:55:00
11:15 AM,75.2,62.6,65,30.14,10.0,NNW,3.5,-,N/A,,Clear,340,2012-10-05 15:15:00
11:35 AM,75.2,64.4,69,30.13,10.0,WNW,4.6,-,N/A,,Clear,290,2012-10-05 15:35:00
11:55 AM,75.2,62.6,65,30.13,10.0,Calm,Calm,-,N/A,,Clear,0,2012-10-05 15:55:00
12:35 PM,78.8,60.8,54,30.12,10.0,North,3.5,-,N/A,,Clear,10,2012-10-05 16:35:00
12:55 PM,78.8,62.6,57,30.12,10.0,WNW,3.5,-,N/A,,Clear,300,2012-10-05 16:55:00
1:15 PM,78.8,60.8,54,30.11,10.0,NW,3.5,-,N/A,,Clear,310,2012-10-05 17:15:00
1:35 PM,80.6,55.4,42,30.11,10.0,NW,3.5,-,N/A,,Clear,310,2012-10-05 17:35:00
1:55 PM,80.6,57.2,45,30.10,10.0,WNW,4.6,-,N/A,,Clear,290,2012-10-05 17:55:00
2:35 PM,80.6,55.4,42,30.09,10.0,Calm,Calm,-,N/A,,Clear,0,2012-10-05 18:35:00
2:55 PM,80.6,55.4,42,30.08,10.0,NNW,4.6,-,N/A,,Clear,330,2012-10-05 18:55:00
3:15 PM,80.6,55.4,42,30.07,10.0,West,3.5,-,N/A,,Clear,270,2012-10-05 19:15:00
3:35 PM,80.6,55.4,42,30.07,10.0,NW,4.6,-,N/A,,Clear,310,2012-10-05 19:35:00
3:55 PM,80.6,55.4,42,30.06,10.0,Calm,Calm,-,N/A,,Clear,0,2012-10-05 19:55:00
4:15 PM,80.6,53.6,39,30.06,10.0,Calm,Calm,-,N/A,,Clear,0,2012-10-05 20:15:00
4:35 PM,80.6,57.2,45,30.05,10.0,Calm,Calm,-,N/A,,Clear,0,2012-10-05 20:35:00
4:55 PM,78.8,60.8,54,30.05,10.0,Calm,Calm,-,N/A,,Clear,0,2012-10-05 20:55:00
5:15 PM,80.6,55.4,42,30.05,10.0,Calm,Calm,-,N/A,,Clear,0,2012-10-05 21:15:00
5:35 PM,78.8,60.8,54,30.04,10.0,Calm,Calm,-,N/A,,Clear,0,2012-10-05 21:35:00
5:55 PM,75.2,62.6,65,30.04,10.0,Calm,Calm,-,N/A,,Clear,0,2012-10-05 21:55:00
6:15 PM,73.4,62.6,69,30.04,10.0,Calm,Calm,-,N/A,,Clear,0,2012-10-05 22:15:00
6:35 PM,71.6,62.6,73,30.04,10.0,Calm,Calm,-,N/A,,Clear,0,2012-10-05 22:35:00
6:55 PM,69.8,62.6,78,30.04,10.0,Calm,Calm,-,N/A,,Clear,0,2012-10-05 22:55:00
7:15 PM,69.8,64.4,83,30.04,10.0,Calm,Calm,-,N/A,,Clear,0,2012-10-05 23:15:00
7:35 PM,68.0,64.4,88,30.04,10.0,Calm,Calm,-,N/A,,Clear,0,2012-10-05 23:35:00
7:55 PM,66.2,62.6,88,30.04,10.0,Calm,Calm,-,N/A,,Clear,0,2012-10-05 23:55:00
8:15 PM,66.2,62.6,88,30.04,10.0,Calm,Calm,-,N/A,,Clear,0,2012-10-06 00:15:00
8:35 PM,66.2,62.6,88,30.05,10.0,Calm,Calm,-,N/A,,Clear,0,2012-10-06 00:35:00
8:55 PM,66.2,62.6,88,30.05,10.0,Calm,Calm,-,N/A,,Clear,0,2012-10-06 00:55:00
9:15 PM,64.4,62.6,94,30.05,9.0,Calm,Calm,-,N/A,,Clear,0,2012-10-06 01:15:00
9:35 PM,64.4,62.6,94,30.05,10.0,Calm,Calm,-,N/A,,Clear,0,2012-10-06 01:35:00
9:55 PM,64.4,62.6,94,30.05,8.0,Calm,Calm,-,N/A,,Clear,0,2012-10-06 01:55:00
10:15 PM,64.4,62.6,94,30.05,8.0,Calm,Calm,-,N/A,,Clear,0,2012-10-06 02:15:00
10:35 PM,64.4,60.8,88,30.05,10.0,Calm,Calm,-,N/A,,Clear,0,2012-10-06 02:35:00
10:55 PM,62.6,60.8,94,30.05,10.0,Calm,Calm,-,N/A,,Clear,0,2012-10-06 02:55:00
11:35 PM,62.6,60.8,94,30.04,6.0,Calm,Calm,-,N/A,,Clear,0,2012-10-06 03:35:00
11:55 PM,60.8,59.0,94,30.04,5.0,Calm,Calm,-,N/A,,Clear,0,2012-10-06 03:55:00